Вернуться в каталог

STARLINK-4370

АктивенСвязьSSO
NORAD 53231·PAYLOAD·🇺🇸 United States

Запущен Jul 22, 2022 с Vandenberg Space Force Base

Loading…

Ближайшие Пролёты (ближайшие 24 часа)

TLE

СвежийSource: CelesTrak SupGP

Эпоха: Sep 15, 2026, 01:31 UTC

1 53231C 22084AU  26258.06368056  .00043875  00000+0  13603-2 0  2586
2 53231  97.2838 313.8622 0001355  85.1691 218.8591 15.33456571    17

Отслеживайте STARLINK-4370 в реальном времени с AllMySat

Download on the App Store